MENGTIAN

Last updated on Wed Nov 16 2022 00:02:06 GMT+0000 (Coordinated Universal Time)

1 54216U 22143A 22318.58400067 .00023885 00000+0 28969-3 0 9998 2 54216 41.4778 22.7257 0009807 289.4797 215.2187 15.60006683 88283
UTC large
Height (km)
Speed (km/s)
/
Latitude / Longitude
Inclination (degrees)
Orbital Period (minutes)
Azimuth
Elevation
Range (km)
Doppler Factor

Next 0 passes for location: London (51.5072 / 0.1276)

Sorry there are no passes over London.